ROMMA est une association bénévole à but non lucratif. Votre soutien est indispensable : ADHERER à ROMMA ou FAIRE un DON

Le Versoud - (38, Isère)

Vallée du Grésivaudan (220 m)   Longitude: 05° 51' 44" E   Latitude: 45° 13' 06" N Station partenaire n°6
 

Détail journalier du     <<     >>

Température Humidité Pression Vent Dir Rafale Dir. rafale Ensol.
Heure (°C) (%) (hPa) (km/h) (km/h) (min)
01:00 20.284101600---0
02:00 19.387101600---0
03:00 18.688101600---0
04:00 17.989101600---0
05:00 17.592101600---0
06:00 17.091101700---0
07:00 17.191101700---0
08:00 20.879101700---60
09:00 21.971101702NO60
10:00 24.262101602NNO60
11:00 25.759101602NNO60
12:00 26.856101602NNO15
13:00 28.154101502NNO25
14:00 29.152101505N25
15:00 29.853101505NNO60
16:00 31.445101405NO60
17:00 32.442101403NO60
18:00 32.744101403NO60
19:00 32.842101403NNO60
20:00 30.458101402NNO35
21:00 27.964101402NNO5
22:00 26.169101502NO0
23:00 24.373101500---0
minuit 23.576101600---0

Graphique du 24-06-2019

 

Serveur OMMA